[[{"header":{"parameterUnit":"m.s-1","parameterCategory":1,"la1":30.2991,"la2":30.254,"lo1":-89.0895,"lo2":-89.0444,"dy":0.0017,"dx":0.0017,"nx":28,"ny":28,"refTime":"2025-02-12T03:00:00:Z","depth":0,"parameterNumber":2,"parameterNumberName":"U-component_of_WINDS"},"data":[0,0,0,0,0,0,0,0,0,0,0,0,0,0,0,0,0,0,0,0,0,0,0,0,0,0,0,0,0,0,0,0,0,0,0,0,0,0,0,0,0,0,0,0,0,0,0,0,0,0,0,0,0,0,0,0,0,0,1.7515,1.7514,0,1.7455,1.7454,1.7453,1.7401,1.7401,1.74,1.7399,1.734,1.7339,1.7338,0,0,0,0,0,0,0,0,0,0,0,0,0,1.7587,1.7586,1.7515,1.7514,1.7513,1.7455,1.7454,1.7453,1.7401,1.7401,1.74,1.7399,1.734,1.7339,1.7338,0,0,0,0,0,0,0,0,0,0,0,0,0,1.7544,1.7586,1.7515,1.748,1.7477,1.7455,1.7454,1.7453,1.7401,1.74,1.74,1.7399,1.7341,1.7339,1.7337,1.7346,0,0,1.7333,1.7332,0,0,0,0,0,0,0,0,1.7547,1.7542,1.7486,1.7483,1.7478,1.7434,1.7457,1.7417,1.7402,1.743,1.7399,1.7398,1.7372,1.7368,1.7359,1.7343,1.734,1.7333,1.7332,1.7331,1.7331,0,0,0,0,0,0,0,1.755,1.7544,1.7491,1.7485,1.7481,1.7468,1.7461,1.7449,1.7407,1.7427,1.7424,1.7417,1.737,1.736,1.7357,1.7339,1.7333,1.7331,1.733,1.733,1.7328,1.7329,0,0,0,0,0,0,1.7558,1.7547,1.7493,1.7489,1.7511,1.7468,1.746,1.7449,1.7407,1.7399,1.7418,1.7415,1.7363,1.7359,1.7355,1.7361,1.7331,1.733,1.7329,1.7327,1.7328,1.7329,0,0,0,0,0,0,1.7559,1.7553,1.7495,1.7517,1.7508,1.7468,1.7456,1.7449,1.7439,1.7399,1.7392,1.7416,1.7362,1.7357,1.7348,1.7359,1.7329,1.7327,1.7326,1.7327,1.7328,1.7375,0,0,0,0,0,0,1.7562,1.7554,1.7557,1.7517,1.7508,1.7489,1.7457,1.7448,1.7436,1.7432,1.7395,1.7389,1.7361,1.7351,1.7347,1.7356,1.7326,1.7325,1.7326,1.7328,1.7373,1.7378,1.7383,0,0,0,0,0,1.7565,1.7572,1.7557,1.7551,1.7509,1.749,1.7485,1.7452,1.7437,1.7439,1.7414,1.739,1.7358,1.735,1.7345,1.7354,1.7324,1.7326,1.7328,1.737,1.7377,1.7382,0,0,0,0,0,0,1.7614,1.7567,1.7549,1.7544,1.7522,1.7481,1.7483,1.746,1.7442,1.7439,1.74,1.7392,1.7388,1.737,1.7362,1.736,1.7338,1.7339,1.7372,1.7378,1.7383,1.7387,1.7325,0,0,0,0,0,1.7625,1.7613,1.7572,1.7572,1.7561,1.7524,1.7515,1.7492,1.7467,1.7458,1.7431,1.7409,1.7394,1.7385,1.7369,1.737,1.7361,1.7374,1.7379,1.7383,1.7384,1.7384,1.7389,1.7335,1.7335,1.7335,0,0,1.7646,1.7619,1.7613,1.7581,1.7561,1.755,1.7517,1.7506,1.7498,1.7456,1.7446,1.7427,1.7399,1.7395,1.7392,1.738,1.7397,1.7385,1.7389,1.7388,1.7386,1.7391,1.7396,1.7337,1.7337,1.7336,0,0,1.768,1.7658,1.7655,1.7635,1.7605,1.758,1.758,1.7543,1.7528,1.7518,1.7486,1.7476,1.7451,1.7433,1.742,1.7447,1.7424,1.7443,1.747,1.747,1.7474,1.7477,1.7487,1.7491,1.7445,1.7445,1.7445,0,1.771,1.7692,1.7657,1.7648,1.7635,1.7596,1.7594,1.7577,1.7543,1.7536,1.7522,1.749,1.7469,1.746,1.7467,1.7458,1.7457,1.7447,1.7476,1.7479,1.7482,1.7491,1.7495,1.7448,1.7447,1.7447,1.7447,0,1.7731,1.7719,1.772,1.7688,1.7675,1.767,1.7635,1.7626,1.7605,1.7582,1.7572,1.7545,1.7523,1.752,1.7499,1.7509,1.7502,1.7483,1.746,1.749,1.7498,1.7501,1.7451,1.745,1.7449,1.7449,0,0,1.7794,1.7742,1.7744,1.7729,1.7693,1.7683,1.7676,1.7654,1.7648,1.7626,1.762,1.7599,1.7582,1.7567,1.7544,1.7544,1.7568,1.7525,1.7524,1.7534,1.7577,1.7592,1.7596,1.7552,1.7553,1.7553,1.7579,0,1.7821,1.7806,1.7774,1.7769,1.7758,1.7722,1.7716,1.7694,1.7672,1.766,1.7636,1.7623,1.76,1.7591,1.759,1.7565,1.7576,1.7563,1.7547,1.7547,1.7554,1.76,1.7615,1.7641,1.7582,1.7583,1.7583,0,1.7851,1.7831,1.7825,1.779,1.7784,1.7779,1.7756,1.7745,1.7719,1.7704,1.7688,1.7663,1.7654,1.7633,1.7621,1.7613,1.7605,1.7592,1.7592,1.7589,1.7567,1.7599,1.7648,1.7652,1.7588,1.7587,1.7587,0,1.7897,1.7869,1.7861,1.785,1.7809,1.7806,1.7789,1.7763,1.7752,1.7732,1.7725,1.7705,1.7694,1.768,1.765,1.7637,1.7642,1.7618,1.7629,1.763,1.7631,1.7632,1.7681,1.7627,1.7627,1.7626,1.7626,0,1.7931,1.7928,1.7882,1.7877,1.7874,1.7838,1.7836,1.7816,1.7792,1.7784,1.7752,1.7744,1.7705,1.7694,1.7671,1.7665,1.766,1.7648,1.7642,1.765,1.7652,1.7644,1.7642,1.7627,1.7627,1.7627,1.7627,0,1.7982,1.795,1.794,1.7902,1.7892,1.7892,1.7859,1.7854,1.7831,1.7821,1.7816,1.778,1.7765,1.7734,1.771,1.7695,1.7694,1.7683,1.7703,1.7699,1.7711,1.7711,1.7757,1.7761,1.7705,1.7706,1.7706,0,1.8005,1.8002,1.7964,1.7956,1.794,1.7927,1.7915,1.7881,1.787,1.7841,1.7839,1.7822,1.7805,1.7783,1.7755,1.7737,1.7726,1.7743,1.7723,1.7732,1.7726,1.7726,1.7726,1.7748,1.7749,1.7749,1.775,0,1.805,1.8034,1.8019,1.7998,1.7985,1.7967,1.7947,1.7942,1.7903,1.7893,1.7877,1.7865,1.784,1.7823,1.7801,1.7784,1.7761,1.7756,1.7758,1.7767,1.7778,1.7772,1.7715,1.7755,1.7755,1.7754,1.7754,1.7754,1.8087,1.8083,1.8056,1.804,1.8021,1.8004,1.7997,1.7973,1.7959,1.7936,1.7917,1.7902,1.7877,1.7845,1.783,1.7819,1.7807,1.7809,1.781,1.7811,1.7815,1.778,1.7815,1.7814,1.7814,1.7814,1.7814,0,1.813,1.8111,1.8096,1.807,1.8057,1.8036,1.8013,1.8004,1.7992,1.797,1.7955,1.7937,1.792,1.7892,1.7873,1.7869,1.7858,1.7866,1.7865,1.7862,1.7826,1.7827,1.7875,1.7875,1.7875,1.7875,1.7875,1.7875,1.8151,1.8143,1.8125,1.8108,1.8089,1.8074,1.8063,1.8047,1.8029,1.801,1.7996,1.7978,1.7953,1.7933,1.7917,1.7909,1.7903,1.7914,1.7903,1.787,1.7864,1.7859,1.7859,1.7913,1.7913,1.7939,1.7939,1.794]},{"header":{"parameterUnit":"m.s-1","parameterCategory":1,"la1":30.2991,"la2":30.254,"lo1":-89.0895,"lo2":-89.0444,"dy":0.0017,"dx":0.0017,"nx":28,"ny":28,"refTime":"2025-02-12T03:00:00:Z","depth":0,"parameterNumber":3,"parameterNumberName":"V-component_of_WINDS"},"data":[0,0,0,0,0,0,0,0,0,0,0,0,0,0,0,0,0,0,0,0,0,0,0,0,0,0,0,0,0,0,0,0,0,0,0,0,0,0,0,0,0,0,0,0,0,0,0,0,0,0,0,0,0,0,0,0,0,0,7.1113,7.1115,0,7.1271,7.1273,7.1275,7.1304,7.1303,7.1302,7.13,7.1465,7.147,7.1476,0,0,0,0,0,0,0,0,0,0,0,0,0,7.0842,7.0847,7.1113,7.1115,7.1117,7.1271,7.1273,7.1275,7.1304,7.1303,7.1301,7.13,7.1463,7.147,7.1476,0,0,0,0,0,0,0,0,0,0,0,0,0,7.0976,7.0848,7.1113,7.115,7.1155,7.127,7.1273,7.1276,7.1305,7.1303,7.1301,7.1299,7.1461,7.1469,7.1477,7.1567,0,0,7.1503,7.1507,0,0,0,0,0,0,0,0,7.0968,7.0986,7.1143,7.1148,7.1153,7.1266,7.1238,7.1374,7.1305,7.1248,7.13,7.1298,7.1401,7.1414,7.1448,7.1575,7.1582,7.1504,7.1509,7.1512,7.1515,0,0,0,0,0,0,0,7.0959,7.0979,7.1176,7.1145,7.1152,7.1161,7.1178,7.1264,7.1333,7.1253,7.1255,7.1273,7.1403,7.144,7.1452,7.1585,7.1503,7.1511,7.1516,7.1519,7.1798,7.18,0,0,0,0,0,0,7.0942,7.0971,7.1171,7.118,7.1054,7.1167,7.1186,7.1232,7.1332,7.1346,7.1275,7.1274,7.1426,7.1442,7.1458,7.1572,7.1512,7.152,7.1525,7.1795,7.1798,7.1801,0,0,0,0,0,0,7.0936,7.096,7.1164,7.1077,7.1103,7.1174,7.1225,7.1236,7.1272,7.1349,7.1362,7.1299,7.1425,7.1446,7.154,7.1578,7.1524,7.1532,7.1792,7.1796,7.1799,7.18,0,0,0,0,0,0,7.0929,7.0958,7.0991,7.1077,7.1108,7.1243,7.1227,7.124,7.1286,7.1287,7.1375,7.1388,7.1425,7.1528,7.1549,7.1589,7.1538,7.1789,7.1794,7.1798,7.1797,7.1803,7.1808,0,0,0,0,0,7.0919,7.0985,7.0993,7.1017,7.1151,7.1245,7.1263,7.1304,7.1289,7.1325,7.1374,7.1385,7.157,7.1537,7.1561,7.1604,7.1787,7.1793,7.1798,7.1794,7.1802,7.1808,0,0,0,0,0,0,7.0902,7.0997,7.1006,7.1102,7.1165,7.125,7.1295,7.131,7.1379,7.1377,7.1426,7.1446,7.1538,7.158,7.1542,7.1698,7.1678,7.1688,7.1667,7.1675,7.168,7.1669,7.1545,0,0,0,0,0,7.0909,7.0976,7.1056,7.1133,7.1164,7.1224,7.1266,7.1293,7.1361,7.1388,7.1444,7.1511,7.1585,7.1632,7.1703,7.1803,7.1824,7.1844,7.185,7.1854,7.1863,7.1922,7.1933,7.1818,7.1818,7.1818,0,0,7.0925,7.0985,7.1024,7.1131,7.1183,7.1253,7.1246,7.132,7.1373,7.1399,7.1492,7.1536,7.1614,7.1712,7.1758,7.175,7.19,7.1861,7.1864,7.1871,7.1929,7.1939,7.1949,7.1822,7.1821,7.1821,0,0,7.099,7.1041,7.1112,7.1165,7.1244,7.1284,7.1301,7.1384,7.1414,7.1508,7.153,7.1595,7.172,7.1775,7.182,7.1909,7.1922,7.1931,7.1961,7.2018,7.2027,7.2035,7.2069,7.208,7.1939,7.1939,7.1939,0,7.1,7.1105,7.1147,7.1221,7.1268,7.1294,7.1368,7.1417,7.1516,7.1549,7.1538,7.1698,7.1752,7.1865,7.1887,7.1921,7.1944,7.1921,7.2022,7.203,7.2039,7.2072,7.2084,7.194,7.194,7.1939,7.1939,0,7.1115,7.1188,7.1236,7.1331,7.1383,7.1456,7.1511,7.156,7.1582,7.1624,7.1721,7.1787,7.1874,7.1903,7.1925,7.202,7.2013,7.2011,7.1993,7.205,7.2082,7.2095,7.1941,7.194,7.194,7.194,0,0,7.1173,7.1291,7.1308,7.1352,7.1443,7.1501,7.1577,7.1661,7.1703,7.1771,7.1837,7.1944,7.1944,7.1994,7.2023,7.2073,7.2143,7.2066,7.2069,7.208,7.2254,7.2256,7.227,7.2152,7.2154,7.2156,7.2249,0,7.125,7.1385,7.1426,7.1539,7.1609,7.1636,7.1703,7.1767,7.1808,7.1875,7.1922,7.1997,7.199,7.2021,7.2071,7.2123,7.2179,7.2117,7.2216,7.2219,7.2197,7.2286,7.2288,7.2371,7.2261,7.2263,7.2265,0,7.1358,7.1428,7.1548,7.1632,7.1663,7.1722,7.1804,7.1867,7.1941,7.1968,7.2025,7.2051,7.2134,7.211,7.2226,7.2183,7.2226,7.2258,7.2263,7.2275,7.2246,7.2302,7.2399,7.2412,7.2285,7.2283,7.2282,0,7.139,7.1515,7.1604,7.1641,7.174,7.1782,7.1825,7.1897,7.1946,7.2019,7.2052,7.2133,7.2178,7.2241,7.2289,7.2267,7.2402,7.2381,7.2429,7.2428,7.2457,7.2455,7.2564,7.2482,7.2482,7.2482,7.2482,0,7.1473,7.1546,7.162,7.1675,7.1759,7.1806,7.1889,7.1934,7.1998,7.2064,7.2093,7.2154,7.2213,7.2283,7.2321,7.2413,7.2433,7.2459,7.2469,7.2457,7.2454,7.2487,7.2483,7.2485,7.2485,7.2484,7.2483,0,7.1524,7.1576,7.1675,7.1762,7.1785,7.1844,7.1919,7.1975,7.2018,7.2101,7.2124,7.2192,7.2277,7.2331,7.2438,7.2464,7.2565,7.2572,7.254,7.2545,7.259,7.2586,7.2725,7.2747,7.2649,7.265,7.2651,0,7.1574,7.1631,7.1724,7.177,7.1814,7.1887,7.1938,7.1988,7.204,7.213,7.2175,7.2261,7.2333,7.2467,7.2527,7.261,7.2621,7.2664,7.2633,7.2621,7.2624,7.2621,7.2628,7.2669,7.267,7.2671,7.2671,0,7.1658,7.1681,7.1752,7.1834,7.1893,7.196,7.2026,7.2063,7.2125,7.2182,7.2268,7.2324,7.2434,7.252,7.2609,7.2656,7.2675,7.268,7.2696,7.2686,7.2666,7.2679,7.2555,7.2677,7.2676,7.2676,7.2676,7.2675,7.1711,7.1765,7.1839,7.1918,7.1974,7.2036,7.2093,7.2144,7.2217,7.231,7.2335,7.2426,7.2502,7.2623,7.2673,7.2746,7.2741,7.2763,7.2769,7.2774,7.2776,7.2653,7.2762,7.2762,7.2762,7.2762,7.2762,0,7.1799,7.1848,7.1921,7.2013,7.2077,7.2088,7.2163,7.2216,7.2295,7.2363,7.2433,7.2534,7.2619,7.2687,7.2774,7.282,7.2831,7.2841,7.2839,7.2851,7.2774,7.2753,7.2831,7.2831,7.2831,7.2831,7.2831,7.2831,7.1851,7.1943,7.1976,7.2096,7.2146,7.2234,7.2277,7.2335,7.239,7.2501,7.2571,7.2615,7.2685,7.2778,7.2856,7.2875,7.2906,7.2915,7.2935,7.2863,7.2855,7.2848,7.2828,7.2921,7.2921,7.3006,7.3007,7.3007]}]]